Regional Weather Roundup
Issued by NWS

Home | Current Version | Previous Version | Text Only | Print | Product List | Glossary On
Versions: 1 2 3 4 5 6 7 8 9 10 11 12 13 14 15 16 17 18 19 20 21 22 23 24 25 26 27 28 29 30 31 32 33 34 35 36 37 38 39 40 41 42 43 44 45 46 47 48 49 50
000
ASUS44 KLUB 280410
RWRTX
WEST TEXAS WEATHER ROUNDUP
NATIONAL WEATHER SERVICE LUBBOCK TX
1100 PM CDT SUN JUL 27 2014

NOTE: "FAIR" INDICATES FEW OR NO CLOUDS BELOW 12,000 FEET WITH NO
SIGNIFICANT WEATHER AND/OR OBSTRUCTIONS TO VISIBILITY.

TXZ004-006>008-010-012-014-016-OKZ002-280500-
TEXAS PANHANDLE/OKLAHOMA PANHANDLE

CITY           SKY/WX    TMP DP  RH WIND       PRES   REMARKS
AMARILLO       PTCLDY    78  56  46 E21       30.25R
BORGER         PTCLDY    79  49  34 E14       30.23R
CANADIAN       CLEAR     76  55  48 E5        30.20R
DALHART        CLOUDY    76  54  46 NE17G24   30.28R
DUMAS          CLOUDY    74  52  46 E15       30.27R
GUYMON         CLOUDY    75  58  55 E9        30.26R
HEREFORD       TSTM      71  67  89 CALM      30.28S
PAMPA          CLEAR     73  51  45 E12       30.25R
PERRYTON       PTCLDY    73  58  58 NE6       30.24S
$$

TXZ026-029-035-045-048-280500-
SOUTHERN PANHANDLE/SOUTH PLAINS/ROLLING PLAINS

CITY           SKY/WX    TMP DP  RH WIND       PRES   REMARKS
CHILDRESS      CLEAR     86  65  49 NE18G26   30.11R
SEMINOLE       CLEAR     86  52  31 SE7       30.14R
LUBBOCK        PTCLDY    82  55  39 E6        30.15R
PLAINVIEW      MOCLDY    83  64  52 NE15G23   30.18R THUNDER
SNYDER         CLEAR     87  57  35 SE7       30.10R
$$

TXZ052-054-060>062-072-078-127-140-154-169-280500-
PERMIAN BASIN/CONCHO VALLEY/BIG COUNTRY/EDWARDS PLATEAU

CITY           SKY/WX    TMP DP  RH WIND       PRES   REMARKS
ABILENE        CLEAR     87  61  41 SE9       30.06R
BIG SPRING     CLEAR     92  56  29 E9        30.11R
BRADY          CLEAR     84  61  45 SE6       30.08R
BROWNWOOD      PTCLDY    86  63  45 SE9       30.05R
JUNCTION       CLEAR     86  62  44 SE7       30.07R
MIDLAND        PTCLDY    90  59  35 SE12      30.09R
ODESSA         PTCLDY    90  57  32 SE12      30.10R
SAN ANGELO     CLEAR     88  56  33 SE8       30.05R
SONORA         CLEAR     88  57  35 S6        30.13R
SWEETWATER     CLEAR     87  58  37 SE7       30.12R
WINK           MOCLDY    92  60  34 S17G28    30.06R
$$

TXZ055-058-074-075-080-082-280500-
FAR WEST/SOUTHWEST MOUNTAINS/TRANS PECOS

CITY           SKY/WX    TMP DP  RH WIND       PRES   REMARKS
ALPINE         MOCLDY    82  57  42 S13G18    30.24R
DRYDEN           N/A     91  55  29 E9        30.04R
EL PASO        CLOUDY    89  52  28 W13       30.11R
FORT STOCKTON  PTCLDY    86  58  38 SE13      30.10R
GUADALUPE PASS MOCLDY    82  53  36 E16         N/A
MARFA          PTCLDY    79  55  44 E8        30.24R
PECOS          MOCLDY    89  58  34 SE17      30.05R
PRESIDIO       FAIR      92  59  32 E10G16    30.03R
$$

TXZ014-016-019-021>030-083-280500
TEXAS TECH WEST TEXAS MESONET/TEXAS PANHANDLE/NORTHERN SOUTH PLAINS

CITY           SKY/WX    TMP DP  RH WIND       PRES   REMARKS
ABERNATHY 5ENE   N/A     80  58  45 SE5       30.17R
AMARILLO 9NNE    N/A     78  59  52 NE13      30.25R
AMARILLO 7SSE    N/A     77  58  51 E13       30.26R
AMHERST 1NE      N/A     78  58  50 E5        30.20R
BOOTLEG 11WNW    N/A     72  60  66 E5        30.29S
CANADIAN 6E      N/A     73  57  57 NE9       30.19R
CAPROCK CYN SP   N/A     83  65  54 NE10      30.17R
CHILDRESS 2NNE   N/A     84  64  50 NE16      30.11R
CLARENDON 2WSW   N/A     80  56  42 NE17      30.19R
CLAUDE 12SW      N/A     78  58  50 NE17      30.24R
DIMMITT 2NE    RAIN      72  64  74 E14       30.25R
FLOYDADA 2NNE    N/A     78  63  58 E3        30.15R
FRIONA 2NE       N/A     71  62  71 NE14      30.25S
GOODLETT 3W      N/A     85  65  51 NE16      30.07R
HART 3N          N/A     78  66  68 N20G30    30.25R
HEREFORD 2NW   LGT RAIN  66  62  86 SE2       30.26F
MCLEAN 1E        N/A     75  55  49 NE12      30.20R
MEMPHIS 1NE      N/A     83  58  41 NE10      30.13R
MULESHOE 2SSW    N/A     77  56  49 NE7       30.21R
OLTON 6S         N/A     79  62  56 E3        30.19R
PALO DURO SP     N/A     79  58  48 E12       30.25R
PAMPA 2E         N/A     73  53  49 NE12      30.24R
PLAINVIEW 1S     N/A     81  64  56 NE12      30.19R
SILVERTON 7ESE   N/A     81  65  57 NE20      30.19R
TULIA 2ENE       N/A     80  65  59 E16       30.22R
TURKEY 2WSW      N/A     85  66  52 NE20      30.14R
UMBARGER 3NNE    N/A     79  63  58 E6        30.27R
$$

TXZ033>036-039>041-045>048-280500
TEXAS TECH WEST TEXAS MESONET/SOUTH PLAINS

CITY           SKY/WX    TMP DP  RH WIND       PRES   REMARKS
AIKEN 3WSW       N/A     78  71  79 NE17      30.21R
ANDREWS 2NE      N/A     89  53  29 SE6       30.12R
ANTON 6SSW       N/A     81  57  44 E8        30.17R
BROWNFIELD 2S    N/A     81  52  35 E7        30.15R
DENVR CTY 7WNW   N/A     80  51  36 E7        30.16R
GAIL 2ESE        N/A     88  55  32 SE8       30.08S
LAMESA 2SE       N/A     85  55  36 SE7       30.13R
LEVELLAND 4S     N/A     79  55  44 E5        30.17R
LUBBOCK 3WNW     N/A     85  56  37 E6        30.16R
MORTON 1ENE      N/A     80  55  42 NE7       30.19R
ODONNELL 1N      N/A     85  50  30 SE6       30.13R
PLAINS 3N        N/A     80  52  37 SE6       30.17R
RALLS 1SE        N/A     81  59  47 E6        30.15R
REESE CENTER     N/A     83  54  36 E7        30.16R
SEAGRAVES 1SW    N/A     84  53  34 E6        30.15R
SEMINOLE 2NNE    N/A     83  52  34 E7        30.13R
SLATON 2NE       N/A     83  58  43 E3        30.14R
SNYDER 3E        N/A     86  56  36 SE9       30.09R
SUNDOWN 8SW      N/A     81  53  38 E5        30.17R
TAHOKA 3NNE      N/A     82  53  37 SE6       30.14R
WOLFFORTH 6SSW   N/A     83  57  41 E7        30.16R
$$

TXZ031-032-036>038-042>044-280500-
TEXAS TECH WEST TEXAS MESONET/ROLLING PLAINS

CITY           SKY/WX    TMP DP  RH WIND       PRES   REMARKS
ASPERMONT 3NE    N/A     87  59  38 SE5       30.04R
FLUVANNA 3WNW    N/A     86  52  30 SE8       30.11R
GRAHAM 5SSW      N/A     88  52  29 SE7       30.12R
GUTHRIE 10WSW    N/A     86  62  44 SE8       30.05R
HASKELL 1NW      N/A     88  57  34 SE6       30.03R
JAYTON 1SSE      N/A     86  58  37 SE6       30.06R
KNOX CITY 3NW    N/A     90  56  31 SE10      30.02R
LK A HENRY 1NW   N/A     87  57  36 SE2       30.08R
NORTHFIELD 1S    N/A     86  68  55 NE14      30.11R
ODELL 4ENE       N/A     86  70  58 NE15      30.07R
PADUCAH 10SW     N/A     84  61  45 N5        30.06R
POST 1NE         N/A     85  53  32 SE3       30.10R
RRING SPRGS 3N   N/A     85  58  40 SW2       30.11R
SEYMOUR 3NW      N/A     92  57  30 SE9       30.02R
SPUR 1W          N/A     86  55  35 E2        30.08R
WEINERT 2NNE     N/A     89  60  38 S7        30.04R
WHITE RVR 6NE    N/A     87  57  35 E8        30.11R
$$

TXZ052-054-060>062-072-078-127-140-154-169-280500-
TEXAS TECH WEST TEXAS MESONET/PERMIAN BASIN/
CONCHO VALLEY/BIG COUNTRY/EDWARDS PLATEAU

CITY           SKY/WX    TMP DP  RH WIND       PRES   REMARKS
COYANOSA 2N      N/A     89  60  36 SE13      30.07R
JUNCTION 1SSW    N/A     86  63  45 SE7       30.08R
MERTZON 3NNE     N/A     86  56  35 S5        30.09R
SAN ANGELO 7NW   N/A     88  56  34 E6        30.06R
STRLNG CT 4WSW   N/A     89  58  35 E9        30.09R
ST LAWRNCE 5SW   N/A     87  52  30 SE10      30.10R
SWEETWATR 11SW   N/A     86  61  42 SE10      30.11R
WALL 1E          N/A     85  54  34 SE7       30.06S
$$

TXZ055-058-074-075-080-082-280500-
TEXAS TECH WEST TEXAS MESONET/FAR WEST/SOUTHWEST MOUNTAINS/TRANS PECOS

CITY           SKY/WX    TMP DP  RH WIND       PRES   REMARKS
GUADLPE MTN NP   N/A     80  51  36 NE7       30.28R
$$



USA.gov is the U.S. government's official web portal to all federal, state and local government web resources and services.